アトラス彗星

C/2017 M4 ( ATLAS )

English version
Home page
Updated on September 23, 2018

---------------------------------------------------------------------

・ プロフィール

発見日 2017年6月21日
発見光度 18.3等
発見者 Asteroid Terrestrial-impact Last Alert System (ATLAS) Team

・ 写真集

・ 軌道要素

Epoch 2019 Feb. 6.0 TT = JDT 2458520.5
T 2019 Jan. 18.19052 TT                                 MPCW
q   3.2517445            (2000.0)            P               Q
z  -0.0007082      Peri.  167.62230     -0.34655544     -0.32821601
 +/-0.0000003      Node    65.86708     -0.92163421     +0.29352194
e   1.0023030      Incl.  105.65769     -0.17461304     -0.89784137
From 2516 observations 2017 June 16-2018 Sept. 18, mean residual 0".4.

・ 星図

・ 光度変化

        m1 = 6.0 + 5 logΔ + 10.0 log r

---------------------------------------------------------------------

軌道要素はM.P.E.C. 2018-S50に掲載されたものです。
星図はステラナビゲータ Ver.10 (アストロアーツ) で作成したものです。
光度グラフはComet for Windowsで作成したものです。

---------------------------------------------------------------------

Copyright(C) Seiichi Yoshida (comet@aerith.net). All rights reserved.